Flag for Germany Weather past 2 weeks in Berlin, Berlin, Germany

Now
54 °F

Cool.


Feels Like: 54 °F
Forecast: 47 / 65 °F
Wind: 3 mph from West

Location: Berlin-Tempelhof

Current Time: May 27, 2015 at 11:08:48 PM

Latest Report: May 27, 2015 at 10:00 PM


Visibility: N/A

Pressure: 30.12 "Hg

Humidity: 58%

Dew point: 39 °F

Location of BerlinLocation

Historic Weather in Berlin — Graph

°F

Berlin temperature yesterday

Maximum temperature yesterday: 61 °F (at 5:00 PM)
Minimum temperature yesterday: 51 °F (at 11:00 PM)
Average temperature yesterday: 56 °F

Past Weeks' High & Low Weather Summary

 TemperatureHumidityPressure
High71 °F (May 25, 1:00 PM)96% (May 15, 6:00 AM)30.32 "Hg (May 15, 6:00 AM)
Low41 °F (May 15, 5:00 AM)24% (May 24, 7:00 PM)29.59 "Hg (May 19, 4:00 AM)
Average56 °F61%30.02 "Hg
* Reported May 12 10:00 PM — May 27 10:00 PM, Berlin, Weather by CustomWeather, © 2015

Note: Actual official high and low records may vary slightly from our data, if they occured in-between our weather recording intervals... More about our weather records

Advertising

Berlin weather history for previous 24 hours

 ConditionsComfort  
Time TempWeatherWind HumidityBarometerVisibility
10:00 PM
Wed, May 27
54 °FCool.3 mph58%30.12 "HgN/A
9:00 PM55 °FRefreshingly cool.3 mph55%30.12 "HgN/A
8:00 PM56 °FRefreshingly cool.5 mph53%30.12 "HgN/A
7:00 PM56 °FRefreshingly cool.5 mph53%30.13 "HgN/A
6:00 PM57 °FRefreshingly cool.7 mph50%30.14 "HgN/A
5:00 PM57 °FRefreshingly cool.8 mph47%30.13 "HgN/A
4:00 PM57 °FRefreshingly cool.7 mph47%30.14 "HgN/A
3:00 PM59 °FRefreshingly cool.8 mph47%30.14 "HgN/A
2:00 PM56 °FRefreshingly cool.8 mph52%30.14 "HgN/A
1:00 PM54 °FCool.7 mph58%30.14 "HgN/A
12:00 PM56 °FRefreshingly cool.7 mph58%30.14 "HgN/A
11:00 AM54 °FCool.6 mph66%30.14 "HgN/A
10:00 AM54 °FCool.6 mph66%30.14 "HgN/A
9:00 AM53 °FCool.5 mph68%30.14 "HgN/A
8:00 AM50 °FCool.6 mph73%30.14 "HgN/A
7:00 AM48 °FCool.5 mph80%30.14 "HgN/A
6:00 AM45 °FCool.5 mph83%30.14 "HgN/A
5:00 AM45 °FCool.5 mph81%30.13 "HgN/A
4:00 AM46 °FCool.7 mph76%30.12 "HgN/A
3:00 AM48 °FCool.6 mph72%30.11 "HgN/A
2:00 AM49 °FCool.5 mph68%30.11 "HgN/A
1:00 AM51 °FCool.5 mph69%30.10 "HgN/A
12:00 AM52 °FCool.2 mph67%30.09 "HgN/A
11:00 PM
Tue, May 26
51 °FCool.3 mph68%30.09 "HgN/A
Weather by CustomWeather, © 2015

See weather overviewHow to use our weather pages